{"data":{"norad_id":45061,"intl_designator":"2020-006T","name":"STARLINK-1169","alt_names":[],"object_type":"PAYLOAD","status":"ACTIVE","operator":null,"country":"US","launch_date":"2020-01-29","launch_site_code":"AFETR","launch_vehicle":null,"mission":null,"orbit_class":"UNKNOWN","rcs_meters":null,"size_class":null,"mass_kg":null,"dimensions":null,"purposes":["comms"],"wikipedia_slug":null,"has_3d_model":false,"image_url":null,"decayed_at":null,"tle_current":{"epoch":"2026-05-25T02:52:17.923296Z","epoch_age_seconds":58738,"freshness":"FRESH","line1":"1 45061U 20006T   26145.11965189  .00054970  00000+0  15064-2 0  9994","line2":"2 45061  53.1573 284.2951 0003022 264.5291  95.5368 15.36792623348273","mean_motion":15.36792623,"eccentricity":0.0003022,"inclination_deg":53.1573,"raan_deg":284.2951,"arg_perigee_deg":264.5291,"mean_anomaly_deg":95.5368,"bstar":0.0015064,"rev_number":34827,"period_min":93.701647082932,"perigee_km":453.5359327615,"apogee_km":457.66624406214,"semimajor_km":6833.7380884118,"source":"CELESTRAK","updated_at":"2026-05-25T13:38:16.377971Z"}}}